Location: Geremba
(10.4250°N, 67.2394°W)
Time: 22:56:50
(UTC+00:00)

Cosmos 2218 Rocket - Pass Details

Date: 18 August 2024
Orbit: 956 x 1005 km, 82.9° (Epoch: 16 September)

Event Time Altitude Azimuth Distance (km) Brightness Sun altitude
Rises 09:06:43 0° 21° (NNE) 3,715 7.6 -18.1°
Reaches altitude 10° 09:09:56 10° 36° (NE) 2,760 7.1 -17.4°
Maximum altitude 09:14:35 21° 84° (E) 2,046 6.7 -16.3°
Drops below altitude 10° 09:19:11 10° 131° (SE) 2,740 6.8 -15.2°
Sets 09:22:19 0° 146° (SSE) 3,679 7.3 -14.5°
